Location: Wangen+im+Allg�u
(47.7098°N, 9.8383°E)
Time: 18:52:34
(UTC+01:00)

N. Korean satellite - Visible Passes

Search period start: 19 November 2017 00:00
Search period end: 29 November 2017 00:00
Orbit: 460 x 515 km, 97.2° (Epoch: 18 November)

Date Brightness Start Highest point End Pass type
(mag) Time Alt. Az. Time Alt. Az. Time Alt. Az.
19 Nov 10.3 05:57:50 10° ENE 05:58:44 11° E 05:59:38 10° ESE visible
19 Nov 6.4 18:08:18 10° SSE 18:11:48 75° ENE 18:15:22 10° N visible
20 Nov 7.0 17:45:06 10° SE 17:48:24 38° ENE 17:51:45 10° N visible
20 Nov 9.6 19:19:53 10° SW 19:22:07 16° W 19:24:22 10° NW visible
21 Nov 8.7 06:42:14 10° NNE 06:45:40 34° E 06:49:07 10° SSE visible
21 Nov 7.7 17:22:18 10° ESE 17:25:03 22° ENE 17:27:52 10° NNE visible
21 Nov 8.6 18:55:22 10° SSW 18:58:27 28° W 19:01:36 10° NW visible
22 Nov 9.8 06:19:18 10° NE 06:22:03 19° E 06:24:48 10° SE visible
22 Nov 7.2 18:31:25 10° S 18:34:52 55° W 18:38:25 10° NNW visible
23 Nov 10.3 05:57:24 10° ENE 05:58:21 11° E 05:59:18 10° ESE visible
23 Nov 6.4 18:07:51 10° SSE 18:11:22 75° ENE 18:14:59 10° N visible
24 Nov 7.0 17:44:38 10° SE 17:47:57 39° ENE 17:51:21 10° N visible
24 Nov 9.6 19:19:24 10° SW 19:21:40 16° W 19:23:59 10° NW visible
25 Nov 8.7 06:41:48 10° NNE 06:45:15 34° E 06:48:42 10° SSE visible
25 Nov 7.8 17:21:48 10° ESE 17:24:36 22° ENE 17:27:28 10° NNE visible
25 Nov 8.6 18:54:52 10° SSW 18:57:59 29° W 19:01:12 10° NNW visible
26 Nov 9.7 06:18:51 10° NE 06:21:37 19° E 06:24:22 10° SE visible
26 Nov 7.2 18:30:54 10° S 18:34:24 55° W 18:37:59 10° NNW visible
27 Nov 10.3 05:56:55 10° ENE 05:57:54 11° E 05:58:52 10° ESE visible
27 Nov 6.4 18:07:20 10° SSE 18:10:53 75° ENE 18:14:32 10° N visible
28 Nov 7.3 07:04:35 10° NNE 07:08:21 64° E 07:12:05 10° S visible
28 Nov 7.0 17:44:06 10° SE 17:47:27 39° ENE 17:50:53 10° N visible
28 Nov 9.6 19:18:49 10° SW 19:21:10 16° W 19:23:33 10° NW visible
